Year,Month,Day,Hour,Minute,Value (Times are PST for temperature in C)
2004,06,22,00,00,14.60
2004,06,22,00,01,14.60
2004,06,22,00,02,14.60
2004,06,22,00,03,14.60
2004,06,22,00,04,14.50
2004,06,22,00,05,14.50
2004,06,22,00,06,14.60
2004,06,22,00,07,14.60
2004,06,22,00,08,14.70
2004,06,22,00,09,14.70
2004,06,22,00,10,14.80
2004,06,22,00,11,14.80
2004,06,22,00,12,14.90
2004,06,22,00,13,14.90
2004,06,22,00,14,14.90
2004,06,22,00,15,14.80
2004,06,22,00,16,14.90
2004,06,22,00,17,15.00
2004,06,22,00,18,15.10
2004,06,22,00,19,15.10
2004,06,22,00,20,15.10
2004,06,22,00,21,15.10
2004,06,22,00,22,15.00
2004,06,22,00,23,15.00
2004,06,22,00,24,15.00
2004,06,22,00,25,15.00
2004,06,22,00,26,15.00
2004,06,22,00,27,15.00
2004,06,22,00,28,15.00
2004,06,22,00,29,14.90
2004,06,22,00,30,14.80
2004,06,22,00,31,14.70
2004,06,22,00,32,14.60
2004,06,22,00,33,14.60
2004,06,22,00,34,14.50
2004,06,22,00,35,14.50
2004,06,22,00,36,14.40
2004,06,22,00,37,14.30
2004,06,22,00,38,14.20
2004,06,22,00,39,14.20
2004,06,22,00,40,14.10
2004,06,22,00,41,14.20
2004,06,22,00,42,14.20
2004,06,22,00,43,14.20
2004,06,22,00,44,14.20
2004,06,22,00,45,14.20
2004,06,22,00,46,14.20
2004,06,22,00,47,14.20
2004,06,22,00,48,14.20
2004,06,22,00,49,14.20
2004,06,22,00,50,14.20
2004,06,22,00,51,14.10
2004,06,22,00,52,14.00
2004,06,22,00,53,14.00
2004,06,22,00,54,13.90
2004,06,22,00,55,13.80
2004,06,22,00,56,13.80
2004,06,22,00,57,13.70
2004,06,22,00,58,13.70
2004,06,22,00,59,13.80
2004,06,22,01,00,13.80
2004,06,22,01,01,13.70
2004,06,22,01,02,13.70
2004,06,22,01,03,13.70
2004,06,22,01,04,13.70
2004,06,22,01,05,13.70
2004,06,22,01,06,13.80
2004,06,22,01,07,13.90
2004,06,22,01,08,14.00
2004,06,22,01,09,14.10
2004,06,22,01,10,14.20
2004,06,22,01,11,14.20
2004,06,22,01,12,14.10
2004,06,22,01,13,14.10
2004,06,22,01,14,14.10
2004,06,22,01,15,14.20
2004,06,22,01,16,14.40
2004,06,22,01,17,14.50
2004,06,22,01,18,14.50
2004,06,22,01,19,14.60
2004,06,22,01,20,14.80
2004,06,22,01,21,14.90
2004,06,22,01,22,15.00
2004,06,22,01,23,15.00
2004,06,22,01,24,15.10
2004,06,22,01,25,15.10
2004,06,22,01,26,15.20
2004,06,22,01,27,15.20
2004,06,22,01,28,15.10
2004,06,22,01,29,15.00
2004,06,22,01,30,14.90
2004,06,22,01,31,15.00
2004,06,22,01,32,15.10
2004,06,22,01,33,15.10
2004,06,22,01,34,15.20
2004,06,22,01,35,15.20
2004,06,22,01,36,15.30
2004,06,22,01,37,15.40
2004,06,22,01,38,15.50
2004,06,22,01,39,15.50
2004,06,22,01,40,15.50
2004,06,22,01,41,15.40
2004,06,22,01,42,15.30
2004,06,22,01,43,15.20
2004,06,22,01,44,15.20
2004,06,22,01,45,15.20
2004,06,22,01,46,15.20
2004,06,22,01,47,15.20
2004,06,22,01,48,15.20
2004,06,22,01,49,15.30
2004,06,22,01,50,15.30
2004,06,22,01,51,15.40
2004,06,22,01,52,15.50
2004,06,22,01,53,15.60
2004,06,22,01,54,15.70
2004,06,22,01,55,15.70
2004,06,22,01,56,15.70
2004,06,22,01,57,15.70
2004,06,22,01,58,15.70
2004,06,22,01,59,15.70
2004,06,22,02,00,15.80
2004,06,22,02,01,15.80
2004,06,22,02,02,15.80
2004,06,22,02,03,15.80
2004,06,22,02,04,15.80
2004,06,22,02,05,15.80
2004,06,22,02,06,16.00
2004,06,22,02,07,16.10
2004,06,22,02,08,16.00
2004,06,22,02,09,15.90
2004,06,22,02,10,15.80
2004,06,22,02,11,15.70
2004,06,22,02,12,15.60
2004,06,22,02,13,15.50
2004,06,22,02,14,15.40
2004,06,22,02,15,15.30
2004,06,22,02,16,15.30
2004,06,22,02,17,15.30
2004,06,22,02,18,15.30
2004,06,22,02,19,15.30
2004,06,22,02,20,15.30
2004,06,22,02,21,15.30
2004,06,22,02,22,15.20
2004,06,22,02,23,15.10
2004,06,22,02,24,15.00
2004,06,22,02,25,14.90
2004,06,22,02,26,14.90
2004,06,22,02,27,14.80
2004,06,22,02,28,14.80
2004,06,22,02,29,14.80
2004,06,22,02,30,14.80
2004,06,22,02,31,14.70
2004,06,22,02,32,14.60
2004,06,22,02,33,14.60
2004,06,22,02,34,14.50
2004,06,22,02,35,14.40
2004,06,22,02,36,14.30
2004,06,22,02,37,14.30
2004,06,22,02,38,14.20
2004,06,22,02,39,14.00
2004,06,22,02,40,14.00
2004,06,22,02,41,13.90
2004,06,22,02,42,13.70
2004,06,22,02,43,13.70
2004,06,22,02,44,13.60
2004,06,22,02,45,13.50
2004,06,22,02,46,13.50
2004,06,22,02,47,13.40
2004,06,22,02,48,13.40
2004,06,22,02,49,13.40
2004,06,22,02,50,13.30
2004,06,22,02,51,13.30
2004,06,22,02,52,13.30
2004,06,22,02,53,13.40
2004,06,22,02,54,13.50
2004,06,22,02,55,13.60
2004,06,22,02,56,13.60
2004,06,22,02,57,13.70
2004,06,22,02,58,13.70
2004,06,22,02,59,13.70
2004,06,22,03,00,13.70
2004,06,22,03,01,13.70
2004,06,22,03,02,13.70
2004,06,22,03,03,13.70
2004,06,22,03,04,13.70
2004,06,22,03,05,13.70
2004,06,22,03,06,13.70
2004,06,22,03,07,13.70
2004,06,22,03,08,13.70
2004,06,22,03,09,13.80
2004,06,22,03,10,13.80
2004,06,22,03,11,13.80
2004,06,22,03,12,13.70
2004,06,22,03,13,13.70
2004,06,22,03,14,13.60
2004,06,22,03,15,13.50
2004,06,22,03,16,13.50
2004,06,22,03,17,13.40
2004,06,22,03,18,13.40
2004,06,22,03,19,13.30
2004,06,22,03,20,13.30
2004,06,22,03,21,13.30
2004,06,22,03,22,13.30
2004,06,22,03,23,13.30
2004,06,22,03,24,13.30
2004,06,22,03,25,13.20
2004,06,22,03,26,13.20
2004,06,22,03,27,13.20
2004,06,22,03,28,13.20
2004,06,22,03,29,13.30
2004,06,22,03,30,13.30
2004,06,22,03,31,13.30
2004,06,22,03,32,13.30
2004,06,22,03,33,13.30
2004,06,22,03,34,13.20
2004,06,22,03,35,13.10
2004,06,22,03,36,13.00
2004,06,22,03,37,13.00
2004,06,22,03,38,12.90
2004,06,22,03,39,12.80
2004,06,22,03,40,12.80
2004,06,22,03,41,12.80
2004,06,22,03,42,12.80
2004,06,22,03,43,12.70
2004,06,22,03,44,12.70
2004,06,22,03,45,12.70
2004,06,22,03,46,12.70
2004,06,22,03,47,12.70
2004,06,22,03,48,12.70
2004,06,22,03,49,12.70
2004,06,22,03,50,12.70
2004,06,22,03,51,12.70
2004,06,22,03,52,12.80
2004,06,22,03,53,12.80
2004,06,22,03,54,12.80
2004,06,22,03,55,12.80
2004,06,22,03,56,12.80
2004,06,22,03,57,12.80
2004,06,22,03,58,12.80
2004,06,22,03,59,12.80
2004,06,22,04,00,12.80
2004,06,22,04,01,12.80
2004,06,22,04,02,12.80
2004,06,22,04,03,12.90
2004,06,22,04,04,12.90
2004,06,22,04,05,13.10
2004,06,22,04,06,13.20
2004,06,22,04,07,13.40
2004,06,22,04,08,13.60
2004,06,22,04,09,13.60
2004,06,22,04,10,13.50
2004,06,22,04,11,13.50
2004,06,22,04,12,13.40
2004,06,22,04,13,13.40
2004,06,22,04,14,13.30
2004,06,22,04,15,13.30
2004,06,22,04,16,13.20
2004,06,22,04,17,13.20
2004,06,22,04,18,13.10
2004,06,22,04,19,13.00
2004,06,22,04,20,13.00
2004,06,22,04,21,12.90
2004,06,22,04,22,12.90
2004,06,22,04,23,12.90
2004,06,22,04,24,12.90
2004,06,22,04,25,12.90
2004,06,22,04,26,12.90
2004,06,22,04,27,12.90
2004,06,22,04,28,12.90
2004,06,22,04,29,12.90
2004,06,22,04,30,12.80
2004,06,22,04,31,12.80
2004,06,22,04,32,12.80
2004,06,22,04,33,12.80
2004,06,22,04,34,12.80
2004,06,22,04,35,12.80
2004,06,22,04,36,12.80
2004,06,22,04,37,12.80
2004,06,22,04,38,12.80
2004,06,22,04,39,12.90
2004,06,22,04,40,12.90
2004,06,22,04,41,12.90
2004,06,22,04,42,12.90
2004,06,22,04,43,12.90
2004,06,22,04,44,12.90
2004,06,22,04,45,12.80
2004,06,22,04,46,12.80
2004,06,22,04,47,12.80
2004,06,22,04,48,12.80
2004,06,22,04,49,12.80
2004,06,22,04,50,12.80
2004,06,22,04,51,12.80
2004,06,22,04,52,12.90
2004,06,22,04,53,13.00
2004,06,22,04,54,13.00
2004,06,22,04,55,13.10
2004,06,22,04,56,13.20
2004,06,22,04,57,13.30
2004,06,22,04,58,13.30
2004,06,22,04,59,13.30
2004,06,22,05,00,13.30
2004,06,22,05,01,13.30
2004,06,22,05,02,13.30
2004,06,22,05,03,13.20
2004,06,22,05,04,13.10
2004,06,22,05,05,13.00
2004,06,22,05,06,12.90
2004,06,22,05,07,12.80
2004,06,22,05,08,12.80
2004,06,22,05,09,12.80
2004,06,22,05,10,12.80
2004,06,22,05,11,12.80
2004,06,22,05,12,12.70
2004,06,22,05,13,12.60
2004,06,22,05,14,12.60
2004,06,22,05,15,12.60
2004,06,22,05,16,12.50
2004,06,22,05,17,12.50
2004,06,22,05,18,12.50
2004,06,22,05,19,12.50
2004,06,22,05,20,12.40
2004,06,22,05,21,12.40
2004,06,22,05,22,12.40
2004,06,22,05,23,12.40
2004,06,22,05,24,12.40
2004,06,22,05,25,12.40
2004,06,22,05,26,12.40
2004,06,22,05,27,12.30
2004,06,22,05,28,12.30
2004,06,22,05,29,12.40
2004,06,22,05,30,12.50
2004,06,22,05,31,12.70
2004,06,22,05,32,12.80
2004,06,22,05,33,12.90
2004,06,22,05,34,13.10
2004,06,22,05,35,13.20
2004,06,22,05,36,13.30
2004,06,22,05,37,13.30
2004,06,22,05,38,13.40
2004,06,22,05,39,13.40
2004,06,22,05,40,13.50
2004,06,22,05,41,13.50
2004,06,22,05,42,13.50
2004,06,22,05,43,13.60
2004,06,22,05,44,13.70
2004,06,22,05,45,13.70
2004,06,22,05,46,13.80
2004,06,22,05,47,13.90
2004,06,22,05,48,13.90
2004,06,22,05,49,13.90
2004,06,22,05,50,13.90
2004,06,22,05,51,13.90
2004,06,22,05,52,13.90
2004,06,22,05,53,13.80
2004,06,22,05,54,13.80
2004,06,22,05,55,13.80
2004,06,22,05,56,13.90
2004,06,22,05,57,13.90
2004,06,22,05,58,13.90
2004,06,22,05,59,13.90
2004,06,22,06,00,13.90
2004,06,22,06,01,13.90
2004,06,22,06,02,14.00
2004,06,22,06,03,14.00
2004,06,22,06,04,14.10
2004,06,22,06,05,14.10
2004,06,22,06,06,14.20
2004,06,22,06,07,14.20
2004,06,22,06,08,14.20
2004,06,22,06,09,14.20
2004,06,22,06,10,14.20
2004,06,22,06,11,14.10
2004,06,22,06,12,14.00
2004,06,22,06,13,13.90
2004,06,22,06,14,13.80
2004,06,22,06,15,13.70
2004,06,22,06,16,13.70
2004,06,22,06,17,13.60
2004,06,22,06,18,13.50
2004,06,22,06,19,13.50
2004,06,22,06,20,13.40
2004,06,22,06,21,13.30
2004,06,22,06,22,13.20
2004,06,22,06,23,13.10
2004,06,22,06,24,13.00
2004,06,22,06,25,12.90
2004,06,22,06,26,12.80
2004,06,22,06,27,12.80
2004,06,22,06,28,12.70
2004,06,22,06,29,12.60
2004,06,22,06,30,12.60
2004,06,22,06,31,12.50
2004,06,22,06,32,12.50
2004,06,22,06,33,12.50
2004,06,22,06,34,12.50
2004,06,22,06,35,12.50
2004,06,22,06,36,12.50
2004,06,22,06,37,12.50
2004,06,22,06,38,12.50
2004,06,22,06,39,12.60
2004,06,22,06,40,12.60
2004,06,22,06,41,12.60
2004,06,22,06,42,12.60
2004,06,22,06,43,12.60
2004,06,22,06,44,12.60
2004,06,22,06,45,12.60
2004,06,22,06,46,12.70
2004,06,22,06,47,12.70
2004,06,22,06,48,12.70
2004,06,22,06,49,12.60
2004,06,22,06,50,12.60
2004,06,22,06,51,12.60
2004,06,22,06,52,12.60
2004,06,22,06,53,12.60
2004,06,22,06,54,12.60
2004,06,22,06,55,12.60
2004,06,22,06,56,12.60
2004,06,22,06,57,12.60
2004,06,22,06,58,12.60
2004,06,22,06,59,12.60
2004,06,22,07,00,12.60
2004,06,22,07,01,12.70
2004,06,22,07,02,12.70
2004,06,22,07,03,12.60
2004,06,22,07,04,12.60
2004,06,22,07,05,12.60
2004,06,22,07,06,12.60
2004,06,22,07,07,12.60
2004,06,22,07,08,12.50
2004,06,22,07,09,12.60
2004,06,22,07,10,12.50
2004,06,22,07,11,12.50
2004,06,22,07,12,12.50
2004,06,22,07,13,12.50
2004,06,22,07,14,12.50
2004,06,22,07,15,12.50
2004,06,22,07,16,12.60
2004,06,22,07,17,12.70
2004,06,22,07,18,12.80
2004,06,22,07,19,12.90
2004,06,22,07,20,12.90
2004,06,22,07,21,12.80
2004,06,22,07,22,12.80
2004,06,22,07,23,12.80
2004,06,22,07,24,12.80
2004,06,22,07,25,12.80
2004,06,22,07,26,12.80
2004,06,22,07,27,12.80
2004,06,22,07,28,12.80
2004,06,22,07,29,12.80
2004,06,22,07,30,12.90
2004,06,22,07,31,13.00
2004,06,22,07,32,13.10
2004,06,22,07,33,13.20
2004,06,22,07,34,13.30
2004,06,22,07,35,13.30
2004,06,22,07,36,13.30
2004,06,22,07,37,13.30
2004,06,22,07,38,13.30
2004,06,22,07,39,13.40
2004,06,22,07,40,13.50
2004,06,22,07,41,13.50
2004,06,22,07,42,13.60
2004,06,22,07,43,13.60
2004,06,22,07,44,13.60
2004,06,22,07,45,13.70
2004,06,22,07,46,13.70
2004,06,22,07,47,13.90
2004,06,22,07,48,14.20
2004,06,22,07,49,14.20
2004,06,22,07,50,14.20
2004,06,22,07,51,14.20
2004,06,22,07,52,14.30
2004,06,22,07,53,14.30
2004,06,22,07,54,14.20
2004,06,22,07,55,14.30
2004,06,22,07,56,14.40
2004,06,22,07,57,14.30
2004,06,22,07,58,14.20
2004,06,22,07,59,14.20
2004,06,22,08,00,14.30
2004,06,22,08,01,14.30
2004,06,22,08,02,14.40
2004,06,22,08,03,14.30
2004,06,22,08,04,14.40
2004,06,22,08,05,14.40
2004,06,22,08,06,14.50
2004,06,22,08,07,14.40
2004,06,22,08,08,14.50
2004,06,22,08,09,14.60
2004,06,22,08,10,14.50
2004,06,22,08,11,14.50
2004,06,22,08,12,14.60
2004,06,22,08,13,14.70
2004,06,22,08,14,14.70
2004,06,22,08,15,14.70
2004,06,22,08,16,14.60
2004,06,22,08,17,14.80
2004,06,22,08,18,14.80
2004,06,22,08,19,14.70
2004,06,22,08,20,14.80
2004,06,22,08,21,14.90
2004,06,22,08,22,15.00
2004,06,22,08,23,15.10
2004,06,22,08,24,15.10
2004,06,22,08,25,15.30
2004,06,22,08,26,15.30
2004,06,22,08,27,15.30
2004,06,22,08,28,15.30
2004,06,22,08,29,15.30
2004,06,22,08,30,15.30
2004,06,22,08,31,15.40
2004,06,22,08,32,15.50
2004,06,22,08,33,15.60
2004,06,22,08,34,15.70
2004,06,22,08,35,15.80
2004,06,22,08,36,15.90
2004,06,22,08,37,16.10
2004,06,22,08,38,16.10
2004,06,22,08,39,16.20
2004,06,22,08,40,16.30
2004,06,22,08,41,16.40
2004,06,22,08,42,16.40
2004,06,22,08,43,16.40
2004,06,22,08,44,16.50
2004,06,22,08,45,16.60
2004,06,22,08,46,16.50
2004,06,22,08,47,16.70
2004,06,22,08,48,16.90
2004,06,22,08,49,17.00
2004,06,22,08,50,17.00
2004,06,22,08,51,17.10
2004,06,22,08,52,17.30
2004,06,22,08,53,17.30
2004,06,22,08,54,17.30
2004,06,22,08,55,17.20
2004,06,22,08,56,17.20
2004,06,22,08,57,17.20
2004,06,22,08,58,17.40
2004,06,22,08,59,17.40
2004,06,22,09,00,17.50
2004,06,22,09,01,17.60
2004,06,22,09,02,17.80
2004,06,22,09,03,17.90
2004,06,22,09,04,17.90
2004,06,22,09,05,18.10
2004,06,22,09,06,18.10
2004,06,22,09,07,18.10
2004,06,22,09,08,18.10
2004,06,22,09,09,18.10
2004,06,22,09,10,18.10
2004,06,22,09,11,18.00
2004,06,22,09,12,17.80
2004,06,22,09,13,17.80
2004,06,22,09,14,17.80
2004,06,22,09,15,17.80
2004,06,22,09,16,17.90
2004,06,22,09,17,17.90
2004,06,22,09,18,17.90
2004,06,22,09,19,17.90
2004,06,22,09,20,18.00
2004,06,22,09,21,18.10
2004,06,22,09,22,18.30
2004,06,22,09,23,18.50
2004,06,22,09,24,18.70
2004,06,22,09,25,18.80
2004,06,22,09,26,18.90
2004,06,22,09,27,18.90
2004,06,22,09,28,18.90
2004,06,22,09,29,19.00
2004,06,22,09,30,18.90
2004,06,22,09,31,18.80
2004,06,22,09,32,18.80
2004,06,22,09,33,18.70
2004,06,22,09,34,18.50
2004,06,22,09,35,18.20
2004,06,22,09,36,18.10
2004,06,22,09,37,18.10
2004,06,22,09,38,18.00
2004,06,22,09,39,17.80
2004,06,22,09,40,17.70
2004,06,22,09,41,17.70
2004,06,22,09,42,17.50
2004,06,22,09,43,17.40
2004,06,22,09,44,17.30
2004,06,22,09,45,17.10
2004,06,22,09,46,17.20
2004,06,22,09,47,17.30
2004,06,22,09,48,17.30
2004,06,22,09,49,17.30
2004,06,22,09,50,17.50
2004,06,22,09,51,17.50
2004,06,22,09,52,17.60
2004,06,22,09,53,17.50
2004,06,22,09,54,17.50
2004,06,22,09,55,17.50
2004,06,22,09,56,17.50
2004,06,22,09,57,17.60
2004,06,22,09,58,17.50
2004,06,22,09,59,17.50
2004,06,22,10,00,17.50
2004,06,22,10,01,17.60
2004,06,22,10,02,17.80
2004,06,22,10,03,17.90
2004,06,22,10,04,17.90
2004,06,22,10,05,18.00
2004,06,22,10,06,18.10
2004,06,22,10,07,18.10
2004,06,22,10,08,18.10
2004,06,22,10,09,18.10
2004,06,22,10,10,18.10
2004,06,22,10,11,18.30
2004,06,22,10,12,18.40
2004,06,22,10,13,18.30
2004,06,22,10,14,18.20
2004,06,22,10,15,18.10
2004,06,22,10,16,17.90
2004,06,22,10,17,18.00
2004,06,22,10,18,18.10
2004,06,22,10,19,18.20
2004,06,22,10,20,18.20
2004,06,22,10,21,18.30
2004,06,22,10,22,18.20
2004,06,22,10,23,18.30
2004,06,22,10,24,18.40
2004,06,22,10,25,18.30
2004,06,22,10,26,18.40
2004,06,22,10,27,18.60
2004,06,22,10,28,18.80
2004,06,22,10,29,18.90
2004,06,22,10,30,18.90
2004,06,22,10,31,18.80
2004,06,22,10,32,18.60
2004,06,22,10,33,18.60
2004,06,22,10,34,18.60
2004,06,22,10,35,18.70
2004,06,22,10,36,18.80
2004,06,22,10,37,18.80
2004,06,22,10,38,18.80
2004,06,22,10,39,18.80
2004,06,22,10,40,18.90
2004,06,22,10,41,18.90
2004,06,22,10,42,18.90
2004,06,22,10,43,18.80
2004,06,22,10,44,19.00
2004,06,22,10,45,19.20
2004,06,22,10,46,19.10
2004,06,22,10,47,18.90
2004,06,22,10,48,18.90
2004,06,22,10,49,18.80
2004,06,22,10,50,18.70
2004,06,22,10,51,18.80
2004,06,22,10,52,18.90
2004,06,22,10,53,18.90
2004,06,22,10,54,18.90
2004,06,22,10,55,18.70
2004,06,22,10,56,18.60
2004,06,22,10,57,18.60
2004,06,22,10,58,18.50
2004,06,22,10,59,18.50
2004,06,22,11,00,18.60
2004,06,22,11,01,18.50
2004,06,22,11,02,18.50
2004,06,22,11,03,18.50
2004,06,22,11,04,18.50
2004,06,22,11,05,18.60
2004,06,22,11,06,18.60
2004,06,22,11,07,18.60
2004,06,22,11,08,18.60
2004,06,22,11,09,18.60
2004,06,22,11,10,18.60
2004,06,22,11,11,18.60
2004,06,22,11,12,18.60
2004,06,22,11,13,18.50
2004,06,22,11,14,18.50
2004,06,22,11,15,18.50
2004,06,22,11,16,18.50
2004,06,22,11,17,18.60
2004,06,22,11,18,19.00
2004,06,22,11,19,19.10
2004,06,22,11,20,19.10
2004,06,22,11,21,19.10
2004,06,22,11,22,19.00
2004,06,22,11,23,19.10
2004,06,22,11,24,19.30
2004,06,22,11,25,19.20
2004,06,22,11,26,19.30
2004,06,22,11,27,19.30
2004,06,22,11,28,19.10
2004,06,22,11,29,19.10
2004,06,22,11,30,19.00
2004,06,22,11,31,18.90
2004,06,22,11,32,18.90
2004,06,22,11,33,18.90
2004,06,22,11,34,18.80
2004,06,22,11,35,18.90
2004,06,22,11,36,18.90
2004,06,22,11,37,19.00
2004,06,22,11,38,19.10
2004,06,22,11,39,19.20
2004,06,22,11,40,19.30
2004,06,22,11,41,19.50
2004,06,22,11,42,19.90
2004,06,22,11,43,19.90
2004,06,22,11,44,20.00
2004,06,22,11,45,19.90
2004,06,22,11,46,19.80
2004,06,22,11,47,19.80
2004,06,22,11,48,19.90
2004,06,22,11,49,19.90
2004,06,22,11,50,19.90
2004,06,22,11,51,19.90
2004,06,22,11,52,19.90
2004,06,22,11,53,20.00
2004,06,22,11,54,20.20
2004,06,22,11,55,20.50
2004,06,22,11,56,20.60
2004,06,22,11,57,20.70
2004,06,22,11,58,20.80
2004,06,22,11,59,20.80
2004,06,22,12,00,21.00
2004,06,22,12,01,21.20
2004,06,22,12,02,21.20
2004,06,22,12,03,21.30
2004,06,22,12,04,21.40
2004,06,22,12,05,21.60
2004,06,22,12,06,21.70
2004,06,22,12,07,21.80
2004,06,22,12,08,21.80
2004,06,22,12,09,21.90
2004,06,22,12,10,22.00
2004,06,22,12,11,22.00
2004,06,22,12,12,22.10
2004,06,22,12,13,22.10
2004,06,22,12,14,22.10
2004,06,22,12,15,22.00
2004,06,22,12,16,22.00
2004,06,22,12,17,22.00
2004,06,22,12,18,21.90
2004,06,22,12,19,21.80
2004,06,22,12,20,21.60
2004,06,22,12,21,21.50
2004,06,22,12,22,21.50
2004,06,22,12,23,21.60
2004,06,22,12,24,21.70
2004,06,22,12,25,21.70
2004,06,22,12,26,21.70
2004,06,22,12,27,21.80
2004,06,22,12,28,21.90
2004,06,22,12,29,22.00
2004,06,22,12,30,22.00
2004,06,22,12,31,22.10
2004,06,22,12,32,22.40
2004,06,22,12,33,22.50
2004,06,22,12,34,22.40
2004,06,22,12,35,22.30
2004,06,22,12,36,22.20
2004,06,22,12,37,22.10
2004,06,22,12,38,22.20
2004,06,22,12,39,22.20
2004,06,22,12,40,22.30
2004,06,22,12,41,22.40
2004,06,22,12,42,22.30
2004,06,22,12,43,22.10
2004,06,22,12,44,22.00
2004,06,22,12,45,21.90
2004,06,22,12,46,21.70
2004,06,22,12,47,21.70
2004,06,22,12,48,21.70
2004,06,22,12,49,21.70
2004,06,22,12,50,21.80
2004,06,22,12,51,21.90
2004,06,22,12,52,21.90
2004,06,22,12,53,22.00
2004,06,22,12,54,22.20
2004,06,22,12,55,22.20
2004,06,22,12,56,22.20
2004,06,22,12,57,22.20
2004,06,22,12,58,22.30
2004,06,22,12,59,22.30
2004,06,22,13,00,22.30
2004,06,22,13,01,22.30
2004,06,22,13,02,22.30
2004,06,22,13,03,22.40
2004,06,22,13,04,22.50
2004,06,22,13,05,22.60
2004,06,22,13,06,22.70
2004,06,22,13,07,22.80
2004,06,22,13,08,22.90
2004,06,22,13,09,22.80
2004,06,22,13,10,22.70
2004,06,22,13,11,22.70
2004,06,22,13,12,22.70
2004,06,22,13,13,22.60
2004,06,22,13,14,22.60
2004,06,22,13,15,22.50
2004,06,22,13,16,22.40
2004,06,22,13,17,22.30
2004,06,22,13,18,22.20
2004,06,22,13,19,22.10
2004,06,22,13,20,22.00
2004,06,22,13,21,22.00
2004,06,22,13,22,22.00
2004,06,22,13,23,22.00
2004,06,22,13,24,22.00
2004,06,22,13,25,21.90
2004,06,22,13,26,21.80
2004,06,22,13,27,21.80
2004,06,22,13,28,21.90
2004,06,22,13,29,22.10
2004,06,22,13,30,22.20
2004,06,22,13,31,22.30
2004,06,22,13,32,22.40
2004,06,22,13,33,22.60
2004,06,22,13,34,22.80
2004,06,22,13,35,22.70
2004,06,22,13,36,22.70
2004,06,22,13,37,22.80
2004,06,22,13,38,22.70
2004,06,22,13,39,22.70
2004,06,22,13,40,22.80
2004,06,22,13,41,23.00
2004,06,22,13,42,23.20
2004,06,22,13,43,23.10
2004,06,22,13,44,23.20
2004,06,22,13,45,23.30
2004,06,22,13,46,23.30
2004,06,22,13,47,23.40
2004,06,22,13,48,23.40
2004,06,22,13,49,23.30
2004,06,22,13,50,23.30
2004,06,22,13,51,23.50
2004,06,22,13,52,23.80
2004,06,22,13,53,24.00
2004,06,22,13,54,24.40
2004,06,22,13,55,24.80
2004,06,22,13,56,25.10
2004,06,22,13,57,25.40
2004,06,22,13,58,25.50
2004,06,22,13,59,25.50
2004,06,22,14,00,25.60
2004,06,22,14,01,25.80
2004,06,22,14,02,25.70
2004,06,22,14,03,25.60
2004,06,22,14,04,25.40
2004,06,22,14,05,25.10
2004,06,22,14,06,25.20
2004,06,22,14,07,25.40
2004,06,22,14,08,25.70
2004,06,22,14,09,26.00
2004,06,22,14,10,26.30
2004,06,22,14,11,26.30
2004,06,22,14,12,25.90
2004,06,22,14,13,25.80
2004,06,22,14,14,25.90
2004,06,22,14,15,25.90
2004,06,22,14,16,25.90
2004,06,22,14,17,25.90
2004,06,22,14,18,25.90
2004,06,22,14,19,26.40
2004,06,22,14,20,26.50
2004,06,22,14,21,26.60
2004,06,22,14,22,26.90
2004,06,22,14,23,27.00
2004,06,22,14,24,26.90
2004,06,22,14,25,27.00
2004,06,22,14,26,27.20
2004,06,22,14,27,27.20
2004,06,22,14,28,27.20
2004,06,22,14,29,27.20
2004,06,22,14,30,27.30
2004,06,22,14,31,27.40
2004,06,22,14,32,27.60
2004,06,22,14,33,27.70
2004,06,22,14,34,27.60
2004,06,22,14,35,27.60
2004,06,22,14,36,27.40
2004,06,22,14,37,27.30
2004,06,22,14,38,27.20
2004,06,22,14,39,27.20
2004,06,22,14,40,27.50
2004,06,22,14,41,27.60
2004,06,22,14,42,27.80
2004,06,22,14,43,28.00
2004,06,22,14,44,28.10
2004,06,22,14,45,28.20
2004,06,22,14,46,28.20
2004,06,22,14,47,28.10
2004,06,22,14,48,28.00
2004,06,22,14,49,27.80
2004,06,22,14,50,27.40
2004,06,22,14,51,27.40
2004,06,22,14,52,27.30
2004,06,22,14,53,27.30
2004,06,22,14,54,27.30
2004,06,22,14,55,27.40
2004,06,22,14,56,27.30
2004,06,22,14,57,27.40
2004,06,22,14,58,27.40
2004,06,22,14,59,27.40
2004,06,22,15,00,27.40
2004,06,22,15,01,27.40
2004,06,22,15,02,27.40
2004,06,22,15,03,27.40
2004,06,22,15,04,27.60
2004,06,22,15,05,27.40
2004,06,22,15,06,27.50
2004,06,22,15,07,27.40
2004,06,22,15,08,27.50
2004,06,22,15,09,27.80
2004,06,22,15,10,27.90
2004,06,22,15,11,27.80
2004,06,22,15,12,27.60
2004,06,22,15,13,27.60
2004,06,22,15,14,27.70
2004,06,22,15,15,27.80
2004,06,22,15,16,27.80
2004,06,22,15,17,27.70
2004,06,22,15,18,27.40
2004,06,22,15,19,27.30
2004,06,22,15,20,27.30
2004,06,22,15,21,27.30
2004,06,22,15,22,27.30
2004,06,22,15,23,27.30
2004,06,22,15,24,27.30
2004,06,22,15,25,27.30
2004,06,22,15,26,27.30
2004,06,22,15,27,27.40
2004,06,22,15,28,27.10
2004,06,22,15,29,26.80
2004,06,22,15,30,26.90
2004,06,22,15,31,26.90
2004,06,22,15,32,26.70
2004,06,22,15,33,26.40
2004,06,22,15,34,26.50
2004,06,22,15,35,26.60
2004,06,22,15,36,26.80
2004,06,22,15,37,26.80
2004,06,22,15,38,26.80
2004,06,22,15,39,26.90
2004,06,22,15,40,27.00
2004,06,22,15,41,26.90
2004,06,22,15,42,26.70
2004,06,22,15,43,26.60
2004,06,22,15,44,26.40
2004,06,22,15,45,26.40
2004,06,22,15,46,26.40
2004,06,22,15,47,26.30
2004,06,22,15,48,26.40
2004,06,22,15,49,26.50
2004,06,22,15,50,26.50
2004,06,22,15,51,26.60
2004,06,22,15,52,26.60
2004,06,22,15,53,26.70
2004,06,22,15,54,26.90
2004,06,22,15,55,26.90
2004,06,22,15,56,26.90
2004,06,22,15,57,26.90
2004,06,22,15,58,26.90
2004,06,22,15,59,26.80
2004,06,22,16,00,26.80
2004,06,22,16,01,26.70
2004,06,22,16,02,26.60
2004,06,22,16,03,26.40
2004,06,22,16,04,26.50
2004,06,22,16,05,26.50
2004,06,22,16,06,26.50
2004,06,22,16,07,26.40
2004,06,22,16,08,26.40
2004,06,22,16,09,26.40
2004,06,22,16,10,26.40
2004,06,22,16,11,26.50
2004,06,22,16,12,26.40
2004,06,22,16,13,26.40
2004,06,22,16,14,26.30
2004,06,22,16,15,26.30
2004,06,22,16,16,26.20
2004,06,22,16,17,26.40
2004,06,22,16,18,26.30
2004,06,22,16,19,26.20
2004,06,22,16,20,26.40
2004,06,22,16,21,26.60
2004,06,22,16,22,26.60
2004,06,22,16,23,26.70
2004,06,22,16,24,26.60
2004,06,22,16,25,26.60
2004,06,22,16,26,26.60
2004,06,22,16,27,26.50
2004,06,22,16,28,26.50
2004,06,22,16,29,26.60
2004,06,22,16,30,26.60
2004,06,22,16,31,26.60
2004,06,22,16,32,26.70
2004,06,22,16,33,26.60
2004,06,22,16,34,26.70
2004,06,22,16,35,26.50
2004,06,22,16,36,26.60
2004,06,22,16,37,26.50
2004,06,22,16,38,26.50
2004,06,22,16,39,26.50
2004,06,22,16,40,26.60
2004,06,22,16,41,26.40
2004,06,22,16,42,26.40
2004,06,22,16,43,26.30
2004,06,22,16,44,26.50
2004,06,22,16,45,26.40
2004,06,22,16,46,26.30
2004,06,22,16,47,26.30
2004,06,22,16,48,26.30
2004,06,22,16,49,26.30
2004,06,22,16,50,26.20
2004,06,22,16,51,26.10
2004,06,22,16,52,26.10
2004,06,22,16,53,26.10
2004,06,22,16,54,26.00
2004,06,22,16,55,26.00
2004,06,22,16,56,26.00
2004,06,22,16,57,26.00
2004,06,22,16,58,26.10
2004,06,22,16,59,26.10
2004,06,22,17,00,26.00
2004,06,22,17,01,26.20
2004,06,22,17,02,26.20
2004,06,22,17,03,26.10
2004,06,22,17,04,26.00
2004,06,22,17,05,25.80
2004,06,22,17,06,26.00
2004,06,22,17,07,26.10
2004,06,22,17,08,26.20
2004,06,22,17,09,26.40
2004,06,22,17,10,26.50
2004,06,22,17,11,26.70
2004,06,22,17,12,26.80
2004,06,22,17,13,26.90
2004,06,22,17,14,27.10
2004,06,22,17,15,27.10
2004,06,22,17,16,27.00
2004,06,22,17,17,26.70
2004,06,22,17,18,26.80
2004,06,22,17,19,26.60